Other Public Products
Issued by NWS Grand Forks, ND

Home | Current Version | Previous Version | Graphics & Text | Print | Product List | Glossary On
Versions: 1 2 3 4 5 6 7 8 9 10 11 12 13 14 15 16 17 18 19 20 21 22 23 24 25 26 27 28 29 30 31 32 33 34 35 36 37 38 39 40 41 42 43 44 45 46 47 48 49 50
000
FPUS83 KFGF 290810
OPUFGF
PRAIRIE TO PINES WEATHER ROUNDUP
NATIONAL WEATHER SERVICE EASTERN NORTH DAKOTA/GRAND FORKS ND
300 AM CDT WED JUL 29 2015

 **SATELLITE DATA USED TO AUGMENT SKY COVER AT AUTOMATED STATIONS**
 *****  WEATHER ACROSS EASTERN NORTH DAKOTA  *****

CITY           SKY/WX    TMP DP  RH WIND       PRES   REMARKS
GRAND FORKS    CLOUDY    65  53  65 W26G36    29.56S
GRAND FORKS AF CLOUDY    64  54  68 W30G40    29.58R
GRAND CITY NWS   N/A     63 N/A N/A W18         N/A
BUXTON         NOT AVBL
DEVILS LAKE    CLOUDY    63  50  63 W32G46    29.60R
FARGO          CLOUDY    66  51  58 W22G29    29.73S
WAHPETON ARPT  SUNNY     63  46  55 W18       29.83S
$$

 *****  WEATHER ACROSS CENTRAL AND WESTERN NORTH DAKOTA  *****

CITY           SKY/WX    TMP DP  RH WIND       PRES   REMARKS
JAMESTOWN      CLEAR     61  49  64 W24G31    29.78R
BISMARCK       PTCLDY    61  48  62 W20G29    29.90S
MINOT          LGT RAIN  64  50  60 W28G38    29.76R
MINOT AFB      MOCLDY    64  54  69 W29G39    29.74R
GARRISON         N/A     58  52  80 W17G24    29.83S
WILLISTON      MOCLDY    59  51  75 W16       29.92R
DICKINSON      CLEAR     56  45  66 W13       29.98R
HETTINGER      CLEAR     52  41  66 NW9       30.07R
$$

 *****  OTHER OBSERVATIONS NORTHEAST NORTH DAKOTA  *****

CITY           SKY/WX    TMP DP  RH WIND       PRES   REMARKS
WALHALLA       FAIR      63  61  94 MISG      29.45R
LANGDON        CLOUDY    59  57  94 W22G33    29.52R
CAVALIER       CLOUDY    63  57  82 W25G31    29.46R
GRAFTON        CLOUDY    64  57  77 W25G41    29.51R
CANDO          NOT AVBL
FORT TOTTEN      N/A     60  52  73 W17       29.95
ROLLA          PTSUNNY   55  55 100 W23G39    29.58R FOG
RUGBY          NOT AVBL
 ***** THE ABOVE OBSERVATIONS ARE NON NWS ARE NOT QUALITY
        CONTROLLED AND MAY MIS-REPORT RAIN FOR SNOW...
$$

 *****  OTHER OBSERVATIONS SOUTHEAST NORTH DAKOTA *****

CITY           SKY/WX    TMP DP  RH WIND       PRES   REMARKS
COOPERSTOWN    NOT AVBL
VALLEY CITY    NOT AVBL
OAKES            N/A     63  52  67 SW20G29   29.86F
GWINNER        FAIR      64  48  55 W20G26    29.85S
SHEYENNE NWR     N/A     65  48  55 W16       29.95
BUFFALO        NOT AVBL
WYNDMERE         N/A     64  50  59 W14         N/A
 ***** THE ABOVE OBSERVATIONS ARE NON NWS ARE NOT QUALITY
       CONTROLLED AND MAY MIS-REPORT RAIN FOR SNOW...
$$

  *****  WEATHER ACROSS NORTHERN MINNESOTA  *****

CITY           SKY/WX    TMP DP  RH WIND       PRES   REMARKS
FLAG ISLAND    CLOUDY    63  59  88 SW29G45   29.40F
WARROAD        CLOUDY    61  55  82 SW20G35   29.46F
ROSEAU         CLOUDY    59  54  82 S21G29    29.46S
HALLOCK        CLOUDY    64  57  77 W23G32    29.45R
THF RVR FALLS  CLOUDY    63  54  72 SW18G25   29.57F
HALSTAD        NOT AVBL
FOSSTON        CLOUDY    61  52  72 SW24G32   29.66S
BAUDETTE       CLOUDY    63  52  67 SW26G38   29.50F
WASKISH        CLOUDY    64  55  72 SW23G37   29.59S
CROOKSTON      CLOUDY    64  54  68 W22G30    29.61R
$$
  *****  WEATHER ACROSS CENTRAL AND WEST MINNESOTA  *****

CITY           SKY/WX    TMP DP  RH WIND       PRES   REMARKS
BEMIDJI        CLOUDY    63  50  62 SW20G33   29.67S
PARK RAPIDS    CLOUDY    65  48  54 W28G41    29.74F
WADENA         MOCLDY    64  48  55 W30G40    29.78F
DETROIT LAKES  CLOUDY    64  50  59 W20G31    29.77F
MOORHEAD       CLOUDY    64  52  63 W18G30    29.75S
FERGUS FALLS   MOCLDY    64  48  55 W18G30    29.83R
ELBOW LAKE     FAIR      64  48  57 W17G26    29.86F
MORRIS MN      CLEAR     63  52  67 SW14      29.88F
STAPLES        CLEAR     64  45  48 W18G30    29.79F
WHEATON        CLEAR     64  48  55 W18G29    29.90S
$$
  *****  WEATHER ELSEWHERE ACROSS MINNESOTA  *****

CITY           SKY/WX    TMP DP  RH WIND       PRES   REMARKS
DULUTH         CLEAR     65  53  65 SW13      29.75F
INTRNTL FALLS  CLOUDY    65  48  54 SW16G32   29.55F
ELY            CLEAR     64  50  59 S10G18    29.67F
CLOQUET        NOT AVBL
BRAINERD       CLEAR     67  47  48 SW28G41   29.78F
HIBBING        CLEAR     65  47  52 SW8G17    29.68F
ALEXANDRIA     CLEAR     65  50  58 SW18G26   29.87F
SAINT CLOUD    CLEAR     67  50  54 SW13      29.87F
MINNEAPOLIS    CLEAR     69  57  65 SW12      29.92F
$$

  *****  WEATHER ACROSS SOUTH DAKOTA  *****

CITY           SKY/WX    TMP DP  RH WIND       PRES   REMARKS
SIOUX FALLS    CLEAR     61  55  81 SW6       30.05F
BROOKINGS      CLEAR     59  50  72 SW8       30.03S
WATERTOWN      CLEAR     61  49  64 SW13      29.98S
HURON          CLEAR     61  49  64 W12       30.02F
SISSETON         N/A     65  48  54 W15       29.89F
ABERDEEN       CLEAR     59  50  72 SW13      29.96R
MITCHELL       CLEAR     63  52  67 SW8       30.06S
PIERRE         CLEAR     60  47  61 SW10      30.06S
MOBRIDGE       CLEAR     62  47  57 W10       29.98S
RAPID CITY     CLEAR     52  42  69 NW7       30.20S
$$

  *****  SOME WEATHER IN NEARBY STATES *****

CITY           SKY/WX    TMP DP  RH WIND       PRES   REMARKS
GLASGOW MT     PTCLDY    54  48  80 SW8       30.02R
GREAT FALLS MT CLEAR     53  39  59 SW9       30.19S
CHEYENNE WY    CLEAR     59  28  30 VRB3      30.34S
SCOTTSBLUFF NE CLEAR     55  43  63 N3        30.25R
OMAHA NE       MOCLDY    65  62  90 NW7       30.06R
DES MOINES IA  CLOUDY    73  70  90 SW3       30.01S
DAVENPORT IA   CLOUDY    74  70  87 NW6       29.96R
CHICAGO IL     CLOUDY    78  71  79 SW6       29.92R
EAU CLAIRE WI  MOCLDY    68  59  73 SW7       29.90S
LA CROSSE WI   CLOUDY    75  62  64 W6        29.93R
$$

  *****  SOME NATIONAL WEATHER *****

CITY           SKY/WX    TMP DP  RH WIND       PRES   REMARKS
LA GUARDIA NY  CLEAR     82  66  58 CALM      29.94S
RALEIGH NC     MOCLDY    76  68  76 S7        29.99F
ATLANTA GA     PTCLDY    77  71  82 NW5       29.96F
NEW ORLEANS LA PTCLDY    81  73  76 W6        29.98F
OKLAHOMA CITY  PTCLDY    73  68  84 S6        29.99S
ALBUQUERQUE NM MOCLDY    73  55  53 E6        30.23S
SALT LAKE CITY CLEAR     61  30  31 S6        30.25R
LOS ANGELES CA MOCLDY    67  63  87 NW6       29.93S
BOISE ID       CLEAR     62  37  39 SE6       30.20S
SEATTLE WA     CLEAR     64  52  64 N7        30.21S
$$

*** WEATHER ACROSS MANITOBA...SASKATCHEWAN AND ONTARIO ***
                ***ONTARIO***

CITY           SKY/WX    TMP DP  RH WIND       PRES   REMARKS
GERALDTON      PTCLDY    66  61  82 S8        29.68F
THUNDER BAY    MOCLDY    73  68  83 S6        29.63F
SIOUX LOOKOUT  MOCLDY    66  54  63 S17G24    29.49F
TORONTO        PTCLDY    72  63  73 N5        29.97F
BIG TROUT LK   PTCLDY    68  66  94 S12       29.41F
PICKLE LAKE    NOT AVBL
DRYDEN         CLOUDY    66  52  59 SW16G24   29.46F
KENORA         LGT RAIN  59  57  94 S20G32    29.40F FOG
$$
                *** MANITOBA***

CITY           SKY/WX    TMP DP  RH WIND       PRES   REMARKS
BRANDON        CLOUDY    59  57  94 W21G32    29.48R
DAUPHIN        CLOUDY    63  57  82 NW13      29.41R
ISLAND LAKE    PTCLDY    64  59  82 SE9       29.31F
PILOT MOUND      N/A     57  55  94 W18G32      N/A
THE PAS        CLOUDY    61  57  88 NW16G32   29.47R
THOMPSON       NOT AVBL
WINNIPEG       MOCLDY    61  59  94 W15G24    29.32R
LYNN LAKE        N/A    N/A N/A N/A MISG        N/A
CHURCHILL      LGT RAIN  48  48 100 NE14      29.62F FOG
GILLAM         HVY RAIN  61  59  94 E13G24    29.35F VSB 3/4
$$
                ***SASKATCHEWAN***

CITY           SKY/WX    TMP DP  RH WIND       PRES   REMARKS
ESTEVAN        NOT AVBL
KINDERSLEY     PTCLDY    54  48  82 W7        29.97R
LLOYDMINSTER   CLEAR     57  48  72 W10       29.93R
PRINCE ALBERT  PTCLDY    55  54  94 W7        29.76R
REGINA         PTCLDY    57  52  82 W17G24    29.83R


USA.gov is the U.S. government's official web portal to all federal, state and local government web resources and services.